Wind_Speed
8 7 3 3 1 3 4 5 2 6 4 3 5 6 9 13 6 4 6 12 10 10 9 9 6 5 4 5 6 6 6 8 9 11 13 12 14 22 20 16 13 13 14 16 17 17 16 13 14
12 5 2 1 3 7 5 2 6 6 12 9 8 6 10 7 7 2 4 14 9 10 10 11 10 8 6 4 5 6 6 7 7 7 7 6 8 13 14 12 12 13 13 13 14 16 18 16 13
8 2 2 2 3 7 7 6 13 11 6 3 5 7 4 4 6 3 10 9 9 11 11 12 11 12 9 5 4 3 4 6 6 6 5 4 3 5 7 10 11 12 15 15 16 17 19 19 15
3 2 3 4 9 3 5 10 6 11 6 7 6 9 6 6 3 8 7 6 9 12 12 12 12 12 12 11 8 6 4 6 6 5 4 4 5 3 4 7 8 10 12 12 14 16 20 22 18
2 1 3 5 3 1 3 5 3 5 6 6 2 5 5 5 5 8 9 10 10 10 10 9 10 12 11 13 14 13 10 7 6 5 4 3 0 3 6 8 9 11 12 13 15 16 18 20 20
2 1 4 7 7 5 7 6 9 14 11 7 7 6 5 6 6 8 10 13 10 9 9 12 14 16 15 14 14 14 16 18 18 17 11 6 2 3 6 9 12 13 15 15 16 17 19 21 22
1 2 4 12 12 7 3 3 8 10 7 7 4 5 4 4 7 9 10 10 12 10 11 14 16 18 19 16 14 13 13 13 13 14 14 13 8 4 6 8 11 15 17 19 20 20 19 20 22
3 3 8 6 11 5 4 3 5 6 7 8 3 4 6 6 9 11 11 12 17 17 17 18 18 17 17 18 18 17 16 16 16 17 18 15 12 11 11 9 12 14 16 19 21 24 23 22 22
2 4 7 7 12 7 8 2 4 3 9 5 4 5 16 14 10 14 13 14 16 19 20 19 17 17 18 19 22 19 20 20 19 19 19 18 16 14 13 14 14 14 15 17 17 22 26 25 25
2 3 4 4 7 12 8 6 4 4 11 7 10 14 14 9 14 15 15 16 17 16 16 16 20 20 21 21 20 19 20 19 17 16 16 16 16 15 14 14 14 12 13 16 17 19 22 24 24
3 3 6 8 15 14 12 9 4 8 6 5 10 12 13 16 15 15 15 16 14 13 15 16 19 19 17 17 15 15 15 14 15 17 17 18 17 16 16 16 15 14 14 12 14 17 14 19 23
4 8 4 9 10 10 8 8 9 8 7 12 14 15 17 14 14 13 16 17 18 17 15 13 13 17 17 15 16 15 15 15 15 17 20 19 17 17 18 16 16 16 15 15 13 13 17 19 13
7 7 10 15 18 17 16 12 12 13 9 14 19 16 14 14 13 12 12 15 15 16 14 13 13 17 18 16 15 15 16 17 17 19 21 21 18 17 17 17 16 15 16 16 17 13 15 15 18
8 16 12 11 14 9 16 10 3 7 10 14 15 14 11 14 12 10 10 12 11 13 15 15 18 18 16 18 19 17 16 16 18 18 20 19 17 18 18 18 17 16 17 16 16 17 16 13 18
12 14 12 8 6 7 9 6 7 10 10 12 12 11 9 10 11 9 9 8 9 11 13 15 15 17 17 17 16 14 14 14 15 16 18 19 19 20 18 17 17 17 18 18 16 16 15 14 14
7 7 8 6 5 5 2 5 8 11 11 11 11 11 9 7 7 8 8 8 10 12 14 13 14 14 14 13 13 14 15 15 16 17 18 19 19 19 19 19 18 18 17 15 15 15 16 16 15
1 7 6 9 7 4 3 7 8 12 11 11 11 10 9 5 6 7 8 10 11 11 11 13 15 15 16 18 15 15 16 17 18 19 21 21 20 20 19 18 18 18 17 15 16 15 15 17 17
11 6 8 13 13 6 8 7 12 13 12 11 10 9 9 7 5 6 8 11 10 12 12 14 14 19 18 17 15 14 14 15 16 17 19 20 21 22 21 19 17 18 18 16 17 18 14 15 16
11 9 13 5 4 9 7 11 12 13 12 11 11 9 8 7 7 8 9 10 10 11 13 14 16 19 19 19 18 16 16 15 17 19 19 19 20 20 20 20 17 17 18 18 16 17 17 15 14
8 12 7 7 8 3 10 8 8 12 14 14 12 10 10 9 9 10 10 11 11 11 12 14 16 19 19 16 16 13 13 14 17 19 19 19 20 20 20 20 18 17 19 18 18 19 15 12 14
7 8 15 9 9 6 13 5 7 10 11 13 11 11 9 9 10 10 11 11 10 12 12 13 16 17 18 18 17 16 16 17 21 22 24 22 20 20 20 19 19 18 15 17 19 19 17 12 15
8 7 17 22 11 4 11 3 10 12 14 12 11 11 8 9 9 10 11 11 10 10 10 12 15 16 17 18 18 20 19 20 20 21 23 22 21 19 19 22 18 18 15 15 16 17 17 16 14
5 13 17 14 7 9 9 5 3 10 14 14 9 8 9 9 10 10 11 10 9 8 10 12 14 15 16 18 18 18 18 18 20 22 24 23 24 20 18 20 19 18 16 16 16 15 16 16 13
20 22 12 7 2 4 5 3 5 9 15 14 11 9 11 11 11 12 10 8 8 8 10 12 13 15 16 16 15 15 15 17 20 21 26 25 25 24 20 21 21 18 17 18 17 16 15 15 15
8 7 3 2 4 3 1 5 2 9 5 13 16 13 12 12 11 9 7 7 7 8 10 10 13 14 13 13 13 13 14 15 16 16 19 21 24 23 20 22 21 21 19 18 17 16 18 19 18
14 2 4 6 5 2 2 6 3 1 2 9 15 14 13 11 9 8 7 6 7 7 7 10 12 10 11 11 12 13 13 14 14 14 15 17 18 19 19 20 20 20 20 20 18 14 17 20 16
7 6 5 7 2 3 3 2 5 7 7 13 16 16 15 12 10 8 7 6 5 6 7 9 9 8 10 11 11 13 14 15 14 14 15 16 19 17 16 18 20 21 22 21 20 16 16 17 16
4 11 4 3 6 5 4 6 9 11 12 14 16 16 15 13 11 8 7 5 5 5 6 6 7 9 10 10 12 14 15 15 14 15 17 16 16 18 15 16 19 19 20 23 19 17 16 16 16
6 4 5 4 1 3 3 4 2 14 17 18 17 16 16 14 11 8 7 6 5 5 5 5 7 8 8 10 13 14 14 15 14 16 16 15 15 17 15 15 16 16 17 20 19 16 17 17 17
3 4 5 4 5 0 2 1 4 7 15 16 16 15 14 13 11 10 8 7 5 3 3 3 5 6 7 11 12 15 13 14 15 16 16 15 16 17 15 15 15 16 17 18 19 18 17 17 17
Wind_Direction
155 134 154 203 182 91 75 73 306 113 80 70 70 47 64 39 15 47 347 13 19 28 36 46 71 93 58 28 39 76 97 108 134 155 161 166 172 184 186 184 188 187 185 189 193 191 183 177 177
143 138 199 263 100 112 95 28 95 115 122 117 73 33 54 70 40 55 20 354 18 28 31 42 44 61 77 52 37 51 71 86 105 108 118 149 163 178 184 191 199 205 207 212 209 205 199 190 185
128 141 290 45 84 116 124 134 123 100 73 77 104 51 44 41 44 28 345 350 19 32 35 46 55 46 55 73 85 84 92 102 105 118 125 131 162 185 204 211 209 214 218 218 219 217 214 209 202
179 150 97 83 96 88 120 160 150 120 73 50 88 73 89 42 47 354 350 40 35 33 40 40 51 53 49 56 61 72 76 84 88 79 85 138 175 210 235 245 242 234 234 239 233 227 221 219 218
73 131 97 97 100 97 59 18 222 105 103 58 63 94 75 59 67 32 56 62 53 44 36 45 61 63 48 48 50 52 61 93 112 126 124 149 233 262 248 254 258 258 250 244 245 238 232 225 225
140 289 123 130 130 93 70 81 90 80 83 83 83 98 78 114 50 57 68 70 58 42 41 50 56 65 58 58 58 54 43 42 41 41 36 13 192 220 264 260 258 255 258 257 252 247 243 235 230
169 107 103 121 129 127 131 55 64 95 87 55 74 86 107 84 61 92 79 54 47 43 57 61 62 64 57 58 60 54 48 35 27 18 10 12 8 300 275 277 272 261 258 258 256 251 246 246 243
127 91 135 137 162 125 120 101 110 88 82 113 26 110 133 73 97 85 70 75 60 70 70 63 71 65 66 68 67 60 52 44 36 29 24 16 5 341 322 308 296 277 271 260 255 261 253 246 245
162 154 142 141 149 135 134 89 50 87 114 64 74 108 113 112 93 94 83 77 76 75 80 83 82 71 63 63 62 57 52 46 39 33 28 23 17 4 353 340 318 299 292 278 272 256 258 254 251
28 138 90 76 122 133 119 106 72 88 107 92 95 108 124 92 105 102 100 95 90 91 83 83 78 72 69 65 64 62 58 52 45 38 33 27 19 11 2 354 347 329 309 291 287 277 257 255 249
60 57 125 68 111 122 122 91 79 101 73 135 130 120 114 113 113 107 105 93 90 90 88 76 77 73 68 63 60 57 49 47 42 35 26 17 12 3 356 353 354 352 338 333 308 285 280 257 250
113 54 93 121 113 111 93 101 76 66 97 113 111 114 118 121 112 111 101 104 98 92 85 79 73 67 63 61 58 55 48 40 32 22 19 11 6 359 354 347 340 339 338 335 321 305 276 271 262
98 98 75 100 91 94 96 84 92 88 107 117 119 121 120 113 107 105 106 96 96 88 79 75 62 55 49 49 45 42 37 28 22 18 14 9 3 356 349 343 339 334 328 324 318 310 291 279 256
114 105 101 88 89 111 107 96 73 108 133 131 127 126 125 119 124 122 97 91 82 72 63 57 49 44 37 38 33 31 26 22 21 20 16 14 10 0 350 345 341 340 334 326 316 312 304 286 266
119 103 96 72 100 115 102 65 104 134 149 147 141 134 129 135 141 124 102 85 68 64 58 48 41 38 31 30 30 32 29 25 25 24 21 19 12 3 356 345 342 339 333 332 327 314 307 299 285
108 116 142 175 133 127 348 128 134 150 157 156 155 151 152 148 133 119 99 80 61 63 54 52 50 40 34 34 33 30 28 26 24 20 16 17 13 5 354 343 337 334 332 334 334 327 317 305 300
115 162 164 179 202 139 208 141 169 170 170 170 177 166 144 154 150 114 81 66 59 59 62 54 46 35 25 20 20 19 21 22 19 15 11 7 4 0 353 340 330 333 330 332 334 328 322 310 303
178 164 181 187 199 206 185 170 170 180 182 188 188 174 163 164 149 115 82 70 68 65 58 50 38 30 21 19 13 9 13 15 14 14 12 6 359 356 353 346 338 334 331 334 336 334 326 316 303
158 150 165 160 176 187 203 158 172 183 194 200 202 188 187 169 145 118 97 91 84 70 56 45 35 29 25 20 11 3 1 4 9 8 5 4 1 358 355 354 348 340 336 333 338 338 330 321 321
157 146 129 99 144 151 156 147 172 190 205 214 211 201 202 167 156 121 111 102 87 71 55 44 40 34 30 19 14 12 12 8 7 3 7 8 7 4 2 358 349 346 341 339 343 349 338 323 323
204 192 167 140 130 122 146 151 195 199 220 222 228 228 216 187 163 136 122 103 85 66 52 45 40 35 28 21 17 18 18 13 8 10 7 4 5 7 5 357 355 352 349 341 346 347 348 326 326
216 169 151 141 154 164 212 192 214 203 209 217 227 230 191 127 129 133 121 101 83 70 57 48 41 35 24 23 23 26 20 14 10 5 1 1 359 357 2 1 352 356 356 353 349 346 349 349 331
66 141 137 144 108 135 192 253 131 198 212 210 207 164 141 124 133 129 116 100 82 68 56 47 38 31 25 26 26 23 19 12 7 9 8 10 9 3 3 1 355 354 357 358 353 353 351 358 349
124 114 104 100 135 238 155 246 192 195 220 204 184 155 140 135 132 123 115 100 82 65 50 40 30 25 23 23 24 23 15 8 9 12 14 13 12 12 9 5 3 1 2 359 0 5 6 359 3
162 148 105 157 204 258 63 212 322 189 199 204 177 153 147 145 144 136 125 89 66 51 41 29 22 23 25 22 25 19 7 4 10 13 13 11 10 12 8 7 8 8 8 8 4 5 10 15 13
172 159 174 198 206 199 126 237 144 60 294 184 154 148 146 148 143 131 107 83 62 53 42 23 26 30 26 26 19 11 6 5 6 2 359 359 358 2 2 3 10 10 8 3 358 359 1 9 5
181 214 98 109 59 202 204 256 184 140 120 146 148 152 154 149 146 130 112 80 71 64 39 29 29 30 26 17 11 2 2 2 1 357 359 357 3 0 358 9 15 17 13 8 3 354 359 3 6
173 132 154 133 160 226 224 268 237 191 170 163 162 161 154 152 146 134 119 108 99 64 42 37 32 31 21 18 14 14 13 9 5 0 360 359 355 1 0 1 7 12 16 13 7 359 355 1 7
146 160 67 100 307 229 209 229 337 200 181 174 170 166 161 159 150 145 143 136 111 69 40 35 33 25 14 10 8 10 10 12 12 8 7 6 3 360 360 359 3 4 3 7 8 5 360 358 360
78 142 159 228 183 150 290 203 347 242 178 169 167 166 163 157 152 155 152 144 119 75 45 49 31 18 13 4 9 12 16 18 15 15 13 9 6 5 6 5 4 10 15 11 12 11 9 4 359
Height
780 781 782 782 791 786 806 803 793 796 798 801 797 799 806 815 819 829 823 820 820 819 819 818 816 816 816 817 816 816 816 816 815 815 816 815 816 817 820 822 824 825 825 826 827 828 830 832 832
780 781 781 778 791 803 810 798 798 793 795 795 798 801 808 823 819 820 821 821 821 821 822 820 819 818 818 818 817 818 818 817 818 819 819 820 820 822 822 823 824 825 826 829 830 828 830 831 833
781 780 779 785 801 807 809 800 795 798 797 796 804 807 814 826 824 825 825 823 823 823 824 822 820 820 820 819 819 818 818 818 819 820 821 822 824 825 826 825 823 825 825 826 827 827 829 830 832
781 781 784 793 805 803 797 794 796 802 801 800 804 816 822 829 827 829 826 825 827 827 826 825 822 822 822 821 820 819 821 820 821 822 822 820 821 823 824 826 826 826 825 826 826 825 826 827 831
780 780 794 807 809 802 799 799 796 802 805 808 806 823 827 831 831 830 828 827 828 826 826 825 822 822 823 822 822 822 822 821 820 820 820 820 821 822 823 824 825 825 824 823 825 825 825 826 828
780 783 797 807 809 805 802 799 799 801 804 808 811 818 829 832 833 832 831 830 829 828 827 826 824 825 824 823 823 822 822 822 821 820 819 819 817 821 821 822 822 822 823 823 822 822 823 824 824
781 786 804 805 809 807 804 798 805 807 807 813 812 823 829 831 834 834 833 832 831 829 828 827 827 826 826 826 825 826 826 825 824 822 820 822 821 820 819 820 821 819 819 820 820 820 820 821 821
779 784 804 801 804 811 803 805 805 806 814 812 815 824 830 833 836 836 835 834 832 831 831 830 830 830 829 828 827 827 826 826 825 822 822 822 821 821 819 818 818 816 815 815 814 818 819 816 817
779 787 800 803 801 807 805 809 808 809 811 817 819 821 828 834 834 835 836 836 836 835 834 833 832 832 833 831 829 829 827 826 825 825 823 822 821 820 819 817 815 813 811 809 811 811 813 813 814
779 785 795 793 795 802 807 808 812 817 818 824 825 827 831 834 835 836 836 837 838 839 838 837 836 834 833 832 831 830 829 828 828 827 825 824 821 820 817 815 814 811 809 807 806 806 805 808 808
786 792 792 799 796 798 808 812 813 819 825 821 825 829 832 835 837 837 837 838 840 842 842 840 838 836 835 834 833 832 831 831 830 829 827 824 821 820 818 815 812 810 807 805 802 800 799 800 801
790 795 791 798 799 801 811 812 821 821 830 826 827 832 835 836 836 839 839 841 843 845 843 843 842 838 837 836 835 834 834 833 832 829 825 822 821 819 816 815 812 809 806 803 801 797 795 796 794
792 797 799 801 801 806 811 820 825 832 834 834 832 834 836 838 840 842 843 843 845 845 847 846 844 840 838 837 837 835 833 832 831 828 825 823 822 820 816 814 811 809 806 803 799 796 795 793 788
795 798 804 805 807 812 819 827 824 837 838 837 836 837 838 839 842 845 846 846 846 846 846 846 844 842 843 840 839 838 836 835 832 830 827 826 823 820 817 813 810 807 805 801 798 796 792 789 790
796 805 806 811 812 820 815 835 840 836 839 840 838 838 841 842 844 846 847 848 847 847 846 846 846 845 845 844 842 841 840 837 834 832 829 826 823 820 817 814 810 807 803 798 794 793 791 789 787
803 803 817 819 816 821 820 847 841 838 840 841 839 838 841 844 845 847 849 850 851 849 849 849 848 848 848 846 844 843 840 838 835 833 830 826 824 821 817 813 809 806 803 798 794 791 788 785 783
810 817 825 827 817 822 827 843 837 837 840 841 840 839 841 846 848 851 852 852 853 853 852 852 850 849 848 845 845 844 841 838 835 832 829 826 824 821 818 813 808 804 801 797 793 790 787 783 779
811 817 819 821 817 824 831 837 836 836 838 839 839 841 841 845 848 852 853 853 855 855 855 853 852 849 848 847 846 844 841 839 836 833 830 827 824 821 817 813 808 804 800 796 792 788 784 781 777
787 797 809 823 820 827 830 838 837 837 837 838 837 839 841 844 848 853 854 856 857 858 857 855 853 850 849 848 847 845 842 839 836 834 831 828 825 821 818 813 809 804 799 795 791 786 782 778 774
790 800 820 827 824 826 835 842 839 836 834 832 834 836 839 843 847 853 857 858 859 858 858 857 854 851 850 850 848 846 844 842 839 836 832 829 825 821 818 814 809 804 800 795 790 786 782 777 774
785 789 813 816 829 829 836 847 844 838 835 832 832 833 836 839 845 854 857 858 859 859 859 858 855 853 852 850 848 846 843 841 839 836 832 829 825 822 819 815 810 805 801 797 792 787 783 779 773
784 780 794 814 816 832 827 830 841 836 836 833 830 831 837 844 850 854 856 858 860 861 861 860 857 855 854 852 849 846 845 843 842 839 835 830 826 822 819 815 811 806 802 798 794 789 784 780 775
791 780 795 805 812 816 831 827 830 833 836 830 831 837 842 846 850 854 856 860 862 863 862 861 859 857 856 853 851 850 849 847 844 840 836 831 827 822 819 814 810 806 802 799 795 790 785 781 777
781 790 798 803 807 819 821 824 822 833 825 824 829 838 843 847 852 856 859 862 863 863 863 862 861 860 858 856 855 854 852 849 846 841 836 832 828 823 820 814 810 807 802 798 794 790 786 782 778
779 784 815 823 821 818 823 824 811 814 815 815 826 839 844 848 852 856 860 862 863 864 864 864 863 862 861 860 858 856 853 850 846 843 839 835 830 825 821 816 812 807 803 799 795 790 786 782 777
779 777 795 825 827 814 821 817 808 819 820 813 826 835 843 849 854 857 861 863 864 866 866 866 865 865 864 862 860 856 853 850 847 844 841 837 833 829 823 818 814 809 804 799 795 792 788 783 779
779 786 784 812 826 818 814 813 818 823 826 825 830 835 842 849 854 858 862 864 866 867 867 867 867 866 864 862 859 856 853 850 847 844 841 838 833 829 825 820 815 811 806 802 797 793 789 785 780
759 772 794 793 828 829 821 819 800 821 824 828 832 835 843 849 855 860 863 866 867 868 868 868 867 865 864 862 859 856 853 850 847 844 841 838 834 830 826 822 817 813 809 804 799 794 790 787 783
772 775 792 791 801 804 815 802 803 800 810 821 828 835 842 847 853 859 864 866 867 868 868 868 866 865 864 862 859 856 853 851 848 846 842 839 835 830 827 823 819 815 811 806 801 796 792 788 784
759 769 771 780 809 809 804 797 809 805 808 820 827 835 841 846 854 860 863 865 866 868 868 868 866 866 864 862 860 857 854 852 850 848 844 841 837 833 828 824 820 816 812 808 804 799 795 791 786